Wind_Speed
3 5 8 11 12 14 14 13 12 13 13 15 17 20 22 25 30 34 38 40 47 46 47 50 55 60 59 60 61 69 66 65 66 70 73 76 86 95 97 105 109 118 115 112 111 110 106
6 7 7 8 9 11 12 14 13 13 14 16 20 21 24 30 35 38 41 43 43 46 47 51 54 57 62 61 66 72 74 78 81 77 81 86 94 108 111 112 119 121 118 116 116 115 113
9 9 10 10 9 10 14 14 14 14 16 17 20 24 28 34 36 42 43 45 43 49 54 57 60 65 65 71 76 77 81 78 87 85 95 99 106 110 112 112 114 115 119 121 119 119 125
13 12 13 13 13 15 16 17 17 18 18 20 23 27 30 34 38 41 41 47 49 56 59 65 68 70 73 74 84 85 86 91 99 101 107 116 120 114 108 106 107 110 111 112 111 116 121
18 18 17 16 17 19 19 19 18 20 22 24 27 29 33 40 42 39 47 50 53 59 65 70 73 75 78 82 87 95 99 106 105 108 112 115 106 104 103 102 98 98 96 97 97 102 108
19 21 22 20 20 22 22 20 20 23 23 27 29 30 38 41 45 45 51 53 52 62 68 73 77 80 86 88 95 100 107 112 116 119 118 110 98 93 92 86 80 78 78 78 79 88 94
21 23 23 24 25 24 24 23 22 25 23 28 32 36 40 45 46 51 56 58 60 66 69 76 83 88 93 100 103 109 116 122 125 128 122 104 93 85 78 69 65 63 61 62 66 70 79
26 26 24 23 25 25 26 25 25 25 25 30 32 39 42 45 49 55 58 63 66 77 77 80 87 94 99 107 112 118 125 127 131 131 120 106 91 76 69 59 53 53 54 52 56 59 65
25 26 25 26 28 27 27 28 27 26 28 31 33 38 45 47 52 55 62 72 79 76 77 84 90 99 106 113 117 125 131 134 135 131 118 107 87 74 66 59 51 46 47 46 47 52 54
22 25 25 26 29 27 29 28 27 26 29 30 35 40 45 50 53 59 68 72 72 74 82 89 96 100 110 119 127 133 138 140 143 125 116 107 86 72 61 55 48 40 40 37 40 46 50
16 23 26 27 27 27 27 26 26 29 30 32 39 42 48 52 57 63 69 76 77 82 87 92 98 108 115 121 131 139 140 144 145 126 118 104 85 72 60 51 46 40 33 31 33 36 43
22 24 26 26 24 26 28 26 28 28 32 37 39 46 48 55 59 66 75 74 81 86 89 98 103 112 118 126 135 141 144 147 151 137 120 104 85 74 64 53 45 38 35 31 28 29 32
25 27 27 26 26 26 28 27 27 31 34 37 42 46 52 57 61 70 73 79 83 89 94 100 106 113 120 127 135 143 150 151 150 139 125 104 84 74 65 57 50 44 36 29 24 24 22
19 19 23 25 24 23 24 24 27 32 35 39 46 50 54 59 66 70 76 79 84 87 93 101 108 116 122 126 133 146 149 155 152 145 126 103 86 72 61 52 45 37 34 32 26 18 15
15 14 13 13 16 17 19 25 28 33 37 44 49 53 57 62 69 73 76 82 86 90 96 101 111 117 126 132 140 147 152 155 155 140 123 106 86 75 63 51 40 40 34 30 25 16 12
9 8 7 10 15 19 22 26 30 36 41 47 53 57 62 67 70 72 78 82 88 93 101 106 112 119 126 132 140 148 150 156 157 140 125 105 87 72 61 54 49 41 34 29 22 13 11
15 15 15 17 19 22 26 30 35 40 45 50 54 58 65 67 73 71 80 85 90 94 100 109 115 120 127 133 141 152 151 153 155 143 125 106 85 70 58 48 39 39 37 28 18 13 10
22 22 20 22 25 27 30 35 39 42 47 51 54 60 65 71 76 77 82 87 93 98 103 109 116 123 127 132 143 153 149 154 158 143 125 107 88 72 62 52 46 40 35 26 18 12 8
25 24 24 24 26 31 36 39 42 46 48 53 57 64 69 74 77 81 86 89 95 102 106 112 117 123 128 133 143 151 152 151 152 143 125 108 87 70 60 52 43 39 40 30 20 11 6
30 29 29 29 28 34 39 42 45 45 47 50 58 62 67 72 80 86 90 90 96 103 108 114 118 123 128 136 145 150 150 149 149 143 125 109 86 71 56 45 40 37 32 25 18 12 7
34 34 33 35 37 37 41 45 48 47 48 52 60 64 72 78 84 87 91 93 98 105 110 115 120 124 128 135 146 149 149 149 156 143 124 109 87 73 60 47 42 39 30 19 14 7 7
35 36 37 40 41 42 46 48 52 54 52 56 63 68 77 83 86 88 95 96 100 106 112 118 123 127 131 138 145 146 149 149 156 138 123 108 87 73 59 47 38 36 30 17 10 7 10
38 37 38 41 43 47 51 52 56 59 59 60 66 75 82 84 87 92 96 98 104 108 112 117 123 127 135 139 145 148 148 152 148 133 121 106 87 71 60 46 37 32 27 19 11 7 7
40 40 41 43 45 48 51 55 58 60 62 61 71 80 84 88 89 92 97 101 104 110 115 118 123 127 134 139 144 147 147 156 141 130 119 103 86 68 53 44 35 31 28 17 8 9 7
45 46 47 48 48 50 52 54 56 59 62 68 76 80 82 87 90 93 98 102 106 111 118 119 124 128 134 140 143 143 146 152 140 128 116 101 85 66 52 41 33 33 24 16 8 5 8
48 50 51 51 51 52 52 52 57 61 65 71 77 79 84 86 91 96 100 104 108 112 119 121 125 128 136 140 144 142 148 152 141 126 114 99 84 65 51 41 31 27 23 16 7 2 7
48 50 52 54 54 53 53 55 59 63 68 73 77 82 86 88 94 98 102 105 109 112 120 122 126 131 138 144 146 150 148 147 138 121 111 97 83 65 51 40 30 25 21 15 7 4 10
49 50 52 53 55 55 55 59 62 66 70 73 79 84 86 90 95 100 104 105 109 114 121 123 126 133 138 143 148 147 151 145 132 117 109 94 81 64 50 39 29 21 16 17 8 7 9
53 55 56 56 57 58 59 62 63 66 72 75 81 85 88 93 95 102 105 106 108 116 121 124 128 133 142 145 146 145 148 146 124 114 105 93 79 61 47 36 28 20 11 16 12 11 13
Wind_Direction
262 280 279 272 266 263 261 260 266 283 309 315 327 330 328 332 335 339 338 338 336 337 336 335 336 334 327 326 324 322 323 329 322 314 310 306 304 300 293 295 291 290 284 278 273 266 260
268 288 307 297 271 269 249 248 264 293 307 319 323 321 323 328 333 335 334 336 336 333 334 331 333 339 337 330 328 325 318 329 330 327 320 310 306 308 305 294 286 282 274 270 267 259 254
285 275 285 297 294 268 248 255 272 291 307 313 312 316 322 327 328 333 334 334 331 330 329 329 334 333 336 336 333 329 329 330 333 325 327 323 318 310 302 289 279 274 267 265 260 255 248
274 277 274 283 289 275 262 263 274 281 299 301 309 315 326 327 327 331 335 333 332 333 332 332 333 336 335 337 341 334 336 337 336 335 330 327 320 309 296 288 282 276 273 268 262 258 254
274 268 270 278 279 285 276 266 278 282 289 296 302 321 322 327 327 326 328 332 335 332 334 334 335 334 338 341 342 338 340 344 341 336 330 326 316 305 294 289 286 280 275 270 264 257 253
275 269 269 268 281 280 289 280 280 281 287 293 302 311 321 326 326 323 321 322 326 330 333 334 336 337 340 344 346 341 343 344 344 340 334 324 316 307 298 294 289 281 276 269 262 257 254
281 276 271 267 272 286 286 291 286 278 284 291 303 310 320 327 325 322 323 325 328 327 338 339 339 342 345 348 346 346 347 348 346 344 336 327 321 314 306 301 294 287 278 270 263 252 254
281 269 270 264 272 279 283 287 280 275 283 290 301 314 321 323 320 321 325 329 329 335 340 341 342 346 348 351 351 346 348 350 349 346 339 334 327 321 315 309 300 294 285 275 266 258 252
275 264 266 264 271 277 281 286 279 275 285 293 308 314 316 315 321 320 324 327 327 328 336 342 343 346 350 353 352 348 348 351 350 348 342 338 334 329 325 319 313 300 288 279 268 262 257
268 257 261 266 269 274 282 285 278 279 289 301 309 313 311 319 317 318 323 328 329 333 341 345 345 349 351 353 353 351 350 351 352 350 345 341 338 335 332 324 317 308 295 281 267 259 257
274 255 255 264 268 273 279 282 280 286 298 304 307 308 315 319 319 322 325 328 333 338 345 348 350 352 350 352 352 353 353 352 353 350 348 344 342 339 336 333 326 320 308 295 281 262 253
268 256 256 259 270 268 275 278 284 292 300 303 304 312 316 318 320 324 327 331 339 342 346 350 351 351 350 352 353 354 354 354 355 353 350 347 345 342 341 339 335 331 318 305 295 273 256
275 264 257 258 261 264 272 279 291 297 301 306 309 315 321 321 321 326 329 329 334 339 346 352 351 351 351 352 352 354 354 356 355 354 351 349 348 346 344 344 340 336 330 319 310 297 271
298 286 261 259 264 270 276 282 291 296 306 309 312 321 324 323 324 328 329 332 337 340 348 351 352 351 351 352 351 354 353 356 356 355 352 351 350 348 346 344 343 339 331 327 325 314 276
300 290 271 263 269 270 277 285 294 301 306 312 318 323 324 324 325 330 335 334 341 343 349 351 353 353 351 351 354 354 355 356 356 356 353 353 351 350 348 348 351 348 344 340 332 319 281
282 278 265 262 266 277 286 292 296 303 311 319 319 323 325 326 332 334 336 338 342 344 349 351 353 353 352 351 353 355 355 356 356 357 354 354 353 352 350 351 350 349 346 347 335 318 296
263 262 269 275 282 288 293 299 307 315 318 318 318 323 324 328 334 333 335 340 343 344 350 352 353 353 351 352 354 355 354 357 356 357 356 354 355 353 353 352 352 346 348 348 337 330 321
267 272 278 286 291 296 303 310 316 317 316 318 319 320 323 330 330 334 333 338 342 345 350 351 353 351 351 353 354 355 356 357 356 357 356 355 354 356 353 353 352 354 357 348 348 350 342
273 276 282 289 300 307 309 311 314 315 317 321 318 319 327 327 332 332 332 337 340 346 350 352 353 351 351 352 353 356 355 357 356 357 356 356 356 355 353 350 353 359 358 354 354 354 6
274 278 283 291 296 300 304 308 313 313 316 319 317 323 327 327 329 330 331 338 342 347 350 352 352 351 350 351 353 353 355 357 355 356 356 356 356 355 354 353 359 3 359 3 359 8 48
274 280 285 291 297 302 302 306 311 310 310 314 315 320 321 324 326 329 333 339 342 347 348 350 351 351 351 351 352 353 355 355 355 355 356 356 356 355 356 359 1 3 357 10 10 20 90
273 279 287 290 295 299 300 303 308 308 307 313 314 316 320 323 325 330 335 339 343 346 347 348 348 350 350 350 351 354 354 355 354 354 355 356 356 354 356 359 4 359 354 14 34 62 104
274 281 287 291 294 295 298 303 305 305 307 312 314 315 318 322 325 328 335 339 344 345 346 347 347 348 349 350 351 354 354 355 353 355 355 356 357 353 355 358 3 358 359 6 51 67 112
269 276 283 288 293 295 297 300 303 306 311 313 312 314 317 318 325 330 336 340 344 345 345 346 347 347 348 349 352 353 353 354 353 355 355 355 356 354 354 353 1 2 0 358 37 82 133
272 274 279 284 291 296 298 302 304 308 308 306 307 313 317 320 326 332 336 340 343 343 344 344 346 346 348 348 351 351 354 355 353 354 354 354 354 353 352 353 358 359 354 350 13 62 146
272 278 283 286 290 294 297 301 301 303 303 304 307 313 316 323 329 334 334 340 340 340 343 345 344 344 346 348 350 349 351 352 353 353 353 353 353 352 350 352 356 357 351 342 341 127 174
274 278 282 285 289 290 293 297 299 301 301 305 310 314 318 324 330 333 334 336 337 337 341 343 342 343 346 348 350 349 350 352 352 352 353 352 351 349 350 349 352 352 347 332 306 227 182
274 277 281 285 286 286 289 293 297 299 303 307 308 313 318 324 327 330 333 333 335 336 339 341 342 342 345 347 348 349 350 352 351 351 351 351 349 347 345 343 347 345 352 332 286 225 188
275 278 282 285 286 286 288 291 297 302 304 305 310 313 319 323 326 329 331 333 332 334 338 341 341 342 345 348 347 347 349 351 350 350 350 350 348 344 339 338 335 336 336 329 256 224 193
Height
10782 10781 10780 10778 10777 10777 10776 10776 10776 10776 10776 10774 10773 10770 10766 10763 10760 10756 10751 10745 10739 10732 10726 10719 10711 10703 10694 10685 10672 10658 10647 10636 10623 10609 10594 10580 10565 10550 10534 10517 10495 10480 10484 10476 10483 10482 10483
10781 10779 10778 10776 10775 10774 10773 10773 10774 10774 10773 10771 10769 10766 10763 10759 10755 10751 10745 10739 10732 10726 10718 10710 10701 10691 10681 10671 10658 10643 10628 10611 10596 10578 10562 10544 10528 10508 10492 10474 10452 10436 10421 10417 10421 10428 10431
10778 10777 10776 10775 10773 10772 10770 10771 10771 10771 10770 10768 10765 10762 10758 10755 10750 10744 10739 10733 10726 10719 10711 10701 10692 10680 10667 10655 10640 10624 10605 10585 10568 10550 10530 10507 10484 10458 10432 10410 10388 10368 10360 10355 10358 10364 10365
10776 10775 10774 10773 10772 10769 10768 10768 10768 10767 10765 10764 10761 10758 10755 10751 10746 10739 10733 10727 10720 10712 10702 10691 10679 10667 10653 10638 10618 10603 10583 10556 10529 10503 10483 10458 10430 10400 10367 10339 10326 10312 10301 10302 10306 10304 10311
10772 10771 10771 10770 10769 10767 10765 10766 10765 10763 10761 10759 10756 10753 10749 10745 10740 10733 10728 10721 10711 10701 10691 10679 10666 10651 10635 10619 10599 10578 10553 10528 10498 10472 10446 10416 10381 10345 10312 10288 10276 10260 10256 10252 10257 10258 10259
10768 10767 10767 10766 10765 10764 10764 10763 10761 10758 10756 10753 10750 10747 10743 10739 10732 10726 10720 10712 10704 10692 10679 10666 10652 10635 10618 10600 10578 10557 10529 10498 10465 10438 10403 10366 10330 10295 10264 10247 10236 10223 10214 10211 10215 10212 10209
10764 10762 10762 10762 10761 10761 10760 10759 10757 10754 10752 10749 10744 10741 10738 10732 10724 10716 10709 10702 10695 10685 10668 10653 10636 10616 10597 10576 10554 10529 10503 10471 10431 10395 10359 10321 10287 10254 10229 10214 10200 10189 10183 10180 10175 10178 10175
10759 10757 10757 10757 10756 10756 10755 10754 10752 10750 10748 10745 10742 10737 10731 10724 10715 10708 10700 10691 10680 10667 10656 10638 10623 10603 10580 10556 10533 10506 10472 10444 10404 10363 10318 10282 10249 10224 10202 10190 10177 10164 10154 10151 10146 10149 10152
10751 10752 10752 10751 10751 10751 10750 10748 10746 10745 10744 10741 10738 10733 10727 10718 10710 10701 10692 10682 10671 10658 10645 10627 10608 10587 10564 10536 10510 10483 10448 10413 10379 10334 10288 10252 10226 10201 10180 10165 10154 10145 10134 10131 10129 10126 10129
10745 10746 10746 10746 10745 10745 10744 10743 10741 10740 10738 10736 10732 10727 10719 10713 10703 10694 10685 10674 10662 10649 10633 10613 10592 10570 10543 10510 10482 10457 10416 10384 10350 10314 10272 10232 10206 10186 10167 10150 10139 10131 10121 10116 10111 10109 10109
10741 10740 10740 10740 10740 10740 10739 10737 10736 10735 10733 10730 10724 10718 10712 10703 10695 10687 10677 10665 10651 10636 10615 10597 10576 10547 10519 10493 10469 10431 10403 10361 10319 10289 10251 10219 10190 10170 10153 10139 10125 10117 10109 10102 10099 10097 10094
10735 10734 10734 10735 10735 10735 10735 10733 10731 10729 10727 10723 10717 10712 10705 10696 10687 10678 10666 10653 10640 10624 10604 10579 10558 10530 10503 10471 10444 10413 10382 10344 10304 10266 10238 10206 10179 10157 10139 10127 10116 10107 10098 10092 10088 10087 10086
10729 10728 10728 10729 10729 10729 10729 10728 10727 10724 10721 10716 10711 10705 10698 10690 10681 10670 10657 10644 10630 10612 10589 10566 10542 10519 10494 10464 10434 10401 10371 10339 10297 10260 10224 10195 10174 10150 10132 10118 10107 10098 10089 10084 10081 10079 10081
10724 10722 10722 10724 10725 10725 10725 10725 10722 10718 10715 10710 10704 10698 10690 10682 10672 10661 10650 10635 10621 10605 10582 10555 10532 10503 10480 10460 10429 10394 10357 10322 10286 10250 10217 10192 10166 10149 10132 10118 10106 10097 10088 10080 10075 10073 10074
10721 10720 10720 10720 10721 10722 10721 10720 10717 10714 10709 10703 10697 10690 10682 10673 10663 10652 10639 10625 10606 10590 10571 10547 10523 10498 10467 10438 10415 10385 10349 10311 10281 10246 10213 10186 10162 10142 10126 10114 10105 10092 10083 10076 10073 10070 10067
10720 10719 10719 10719 10718 10718 10717 10715 10712 10708 10703 10696 10688 10681 10672 10662 10653 10642 10631 10615 10597 10580 10557 10535 10513 10489 10462 10432 10404 10375 10343 10308 10271 10243 10210 10184 10160 10143 10126 10108 10096 10091 10084 10076 10072 10067 10064
10719 10717 10717 10716 10715 10715 10712 10710 10706 10702 10695 10688 10680 10672 10664 10655 10644 10632 10619 10605 10590 10573 10551 10525 10501 10477 10452 10424 10396 10370 10340 10303 10271 10235 10207 10179 10161 10143 10127 10112 10102 10090 10081 10078 10072 10067 10065
10714 10714 10714 10712 10711 10709 10706 10703 10699 10694 10688 10681 10672 10664 10656 10646 10634 10624 10612 10596 10580 10561 10540 10517 10493 10467 10443 10420 10390 10359 10332 10295 10264 10235 10206 10181 10157 10141 10123 10110 10100 10093 10087 10079 10073 10068 10066
10710 10710 10709 10707 10705 10702 10699 10696 10692 10687 10680 10673 10664 10655 10647 10636 10624 10615 10604 10589 10571 10549 10528 10506 10484 10460 10434 10410 10386 10358 10325 10295 10263 10233 10207 10182 10162 10145 10125 10112 10104 10095 10088 10082 10077 10071 10069
10705 10704 10703 10701 10700 10697 10693 10690 10685 10679 10673 10665 10656 10648 10638 10627 10617 10605 10592 10578 10562 10539 10518 10497 10478 10456 10430 10400 10374 10349 10320 10295 10259 10232 10206 10181 10163 10148 10135 10120 10108 10100 10094 10087 10081 10077 10074
10698 10698 10696 10694 10692 10690 10686 10682 10677 10671 10664 10657 10647 10638 10627 10619 10611 10598 10584 10567 10550 10528 10509 10489 10469 10450 10429 10406 10372 10344 10318 10288 10262 10231 10204 10182 10163 10147 10134 10122 10109 10103 10099 10092 10087 10082 10080
10691 10690 10689 10687 10685 10682 10678 10674 10669 10663 10656 10649 10638 10628 10620 10610 10600 10588 10574 10558 10539 10519 10500 10480 10458 10439 10418 10396 10372 10345 10315 10286 10261 10232 10206 10183 10164 10149 10139 10128 10118 10110 10105 10100 10093 10090 10088
10684 10683 10682 10679 10677 10674 10670 10666 10661 10653 10647 10639 10628 10620 10611 10602 10590 10578 10565 10548 10528 10511 10495 10475 10454 10431 10409 10389 10366 10339 10311 10286 10261 10233 10207 10185 10168 10151 10139 10133 10124 10118 10112 10108 10102 10099 10097
10676 10675 10673 10671 10669 10666 10661 10657 10652 10645 10639 10630 10620 10611 10602 10591 10581 10567 10553 10537 10518 10503 10485 10468 10448 10428 10406 10383 10361 10336 10310 10286 10260 10234 10210 10189 10171 10158 10149 10138 10131 10125 10119 10115 10110 10108 10107
10666 10666 10665 10663 10661 10657 10652 10648 10641 10635 10628 10620 10610 10602 10593 10582 10571 10557 10542 10526 10509 10493 10476 10459 10441 10423 10402 10381 10354 10330 10310 10289 10260 10235 10213 10190 10175 10162 10152 10145 10136 10129 10128 10124 10119 10116 10116
10657 10656 10654 10653 10651 10647 10643 10639 10633 10626 10618 10609 10599 10591 10583 10571 10561 10547 10532 10515 10500 10483 10467 10450 10431 10413 10396 10374 10351 10332 10307 10283 10256 10233 10214 10191 10175 10166 10154 10148 10142 10137 10134 10131 10127 10125 10124
10648 10647 10645 10643 10641 10638 10634 10629 10623 10617 10608 10599 10589 10581 10571 10560 10548 10536 10522 10506 10492 10475 10459 10441 10423 10404 10385 10365 10343 10322 10302 10279 10253 10232 10213 10193 10176 10165 10156 10150 10146 10141 10139 10138 10135 10133 10133
10637 10636 10634 10632 10630 10628 10624 10618 10613 10606 10597 10589 10579 10570 10560 10550 10538 10526 10511 10496 10481 10467 10450 10434 10417 10397 10378 10358 10336 10317 10295 10274 10251 10231 10211 10196 10179 10165 10157 10151 10148 10144 10143 10141 10140 10139 10139
10625 10623 10621 10621 10619 10616 10612 10607 10601 10594 10585 10577 10568 10558 10547 10537 10526 10514 10500 10485 10472 10459 10441 10425 10408 10389 10371 10351 10331 10312 10294 10273 10249 10228 10211 10193 10179 10168 10159 10152 10147 10146 10145 10144 10145 10143 10144